History for Ft Lauderdale, FL

Friday, January 13, 2017 — View Current Conditions

Jump to Data:

Date:
Airport Code:
Recently Viewed Airport Codes: KFLL
Daily Summary
  Actual Average Record
Temperature
Mean Temperature 75°F 69°F  
Max Temperature 80°F 76°F 86°F (1933)
Min Temperature 69°F 61°F 32°F (1981)
Degree Days
Heating Degree Days 0 2  
Month to date heating degree days 11 26  
Since 1 July heating degree days 13 58  
Cooling Degree Days 10 5  
Month to date cooling degree days 96 74  
Year to date cooling degree days 96 74  
Growing Degree Days 24 (Base 50)    
Moisture
Dew Point 63°F    
Average Humidity 69    
Maximum Humidity 84    
Minimum Humidity 54    
Precipitation
Precipitation 0.03 in 0.08 in 1.97 in (2015)
Month to date precipitation 0.63 1.07  
Year to date precipitation 0.63 1.07  
Snow
Snow 0.00 in in in ()
Month to date snowfall 0.0  
Since 1 July snowfall 0.0  
Snow Depth 0.00 in    
Sea Level Pressure
Sea Level Pressure 30.33 in    
Wind
Wind Speed 15 mph (East)    
Max Wind Speed 23 mph    
Max Gust Speed 28 mph    
Visibility 10 miles    
Events Rain    
T = Trace of Precipitation, MM = Missing Value Source: NWS Daily Summary

Show full METARS

(help) - Comma Delimited File

Hourly Observations

Time(EST) Temperature Dew Point Humidity Sea Level Pressure Visibility Wind Direction Wind Speed Gust Speed Precipitation Events Conditions
12:53 AM 73.0°F 66.9°F 81% 30.29 in 10.0 miles ESE 17.3 mph - 0.02 in   Mostly Cloudy
1:53 AM 72.0°F 66.9°F 84% 30.29 in 10.0 miles East 15.0 mph - 0.01 in   Scattered Clouds
2:53 AM 70.0°F 66.0°F 87% 30.29 in 10.0 miles East 10.4 mph - 0.00 in Rain Light Rain
3:53 AM 70.0°F 66.9°F 90% 30.30 in 9.0 miles ESE 20.7 mph - 0.00 in Rain Light Rain
4:53 AM 70.0°F 66.9°F 90% 30.29 in 10.0 miles ESE 9.2 mph - 0.00 in   Overcast
5:30 AM 72.0°F 66.9°F 84% 30.29 in 10.0 miles ESE 12.7 mph - N/A   Overcast
5:53 AM 73.0°F 64.9°F 76% 30.29 in 10.0 miles East 18.4 mph 24.2 mph N/A   Overcast
6:14 AM 73.0°F 64.0°F 73% 30.30 in 10.0 miles East 18.4 mph - N/A   Overcast
6:53 AM 73.0°F 63.0°F 71% 30.31 in 10.0 miles East 19.6 mph - N/A   Mostly Cloudy
7:53 AM 73.0°F 61.0°F 66% 30.33 in 10.0 miles East 16.1 mph 24.2 mph N/A   Mostly Cloudy
8:53 AM 75.9°F 62.1°F 62% 30.36 in 10.0 miles East 16.1 mph - N/A   Partly Cloudy
9:53 AM 77.0°F 61.0°F 58% 30.38 in 10.0 miles East 19.6 mph 25.3 mph N/A   Partly Cloudy
10:53 AM 78.1°F 62.1°F 58% 30.38 in 10.0 miles East 16.1 mph 27.6 mph N/A   Scattered Clouds
11:53 AM 77.0°F 62.1°F 60% 30.36 in 10.0 miles East 16.1 mph - N/A   Mostly Cloudy
12:53 PM 78.1°F 60.1°F 54% 30.33 in 10.0 miles ENE 18.4 mph - N/A   Partly Cloudy
1:53 PM 77.0°F 62.1°F 60% 30.32 in 10.0 miles East 16.1 mph - N/A   Mostly Cloudy
2:53 PM 78.1°F 60.1°F 54% 30.32 in 10.0 miles East 18.4 mph 25.3 mph N/A   Partly Cloudy
3:53 PM 75.9°F 60.1°F 58% 30.32 in 10.0 miles ENE 13.8 mph - N/A   Scattered Clouds
4:53 PM 75.0°F 62.1°F 64% 30.33 in 10.0 miles ENE 12.7 mph 20.7 mph N/A   Mostly Cloudy
5:53 PM 75.0°F 60.1°F 60% 30.33 in 10.0 miles East 12.7 mph - N/A   Mostly Cloudy
6:53 PM 73.9°F 61.0°F 64% 30.33 in 10.0 miles ENE 8.1 mph 18.4 mph N/A   Mostly Cloudy
7:53 PM 73.9°F 63.0°F 68% 30.35 in 10.0 miles ENE 11.5 mph - N/A   Scattered Clouds
8:53 PM 73.9°F 62.1°F 66% 30.35 in 10.0 miles ENE 15.0 mph - N/A   Mostly Cloudy
9:53 PM 73.9°F 61.0°F 64% 30.36 in 10.0 miles East 13.8 mph - N/A   Mostly Cloudy
10:53 PM 73.9°F 60.1°F 62% 30.35 in 10.0 miles ENE 15.0 mph 20.7 mph N/A   Overcast
11:53 PM 73.0°F 62.1°F 68% 30.34 in 10.0 miles ENE 15.0 mph - N/A   Mostly Cloudy